EW7060 Weather Reports


time (UTC)temp
F
wind
direction
speed
knots
gust
knots
rain 1hr
in
rain 24hr
in
rain mn
in
humidity
%
barometer
mb
20260510022058 61 45 0.0 0.0 0.00 0.00 0.00 66 1011.8
20260510021055 61 270 0.0 0.0 0.00 0.00 0.00 65 1011.7
20260510020059 62 270 0.0 0.0 0.00 0.00 0.00 65 1011.5
20260510015036 62 270 0.0 0.0 0.00 0.00 0.00 65 1011.4
20260510014059 62 270 0.0 0.0 0.00 0.00 0.00 65 1011.3
20260510013034 62 270 0.0 0.0 0.00 0.00 0.00 64 1011.3
20260510012139 62 270 0.0 0.0 0.00 0.00 0.00 64 1011.0
20260510011034 62 270 0.0 0.0 0.00 0.00 0.00 64 1010.8
20260510010058 63 270 0.0 0.0 0.00 0.00 0.00 63 1010.7
20260510005035 63 270 0.0 0.0 0.00 0.00 0.00 63 1010.6
20260510004140 64 270 0.0 0.0 0.00 0.00 0.00 63 1010.5
20260510003055 64 270 0.0 0.0 0.00 0.00 0.00 63 1010.5
20260510002059 64 270 0.0 0.0 0.00 0.00 0.00 63 1010.4
20260510001035 65 270 0.0 0.0 0.00 0.00 0.00 62 1010.3
20260510000056 65 270 0.0 0.0 0.00 0.00 0.00 63 1010.4
20260509235035 66 270 0.0 0.0 0.00 0.00 0.00 62 1010.4
20260509234058 66 270 0.0 0.0 0.00 0.00 0.00 60 1010.3
20260509233119 67 270 0.0 0.0 0.00 0.00 0.00 59 1010.1
20260509232058 67 270 0.0 0.0 0.00 0.00 0.00 59 1009.9
20260509231034 68 270 0.0 0.0 0.00 0.00 0.00 57 1010.0
20260509230059 69 270 0.0 0.0 0.00 0.00 0.00 55 1009.9
20260509225034 70 225 0.0 0.0 0.00 0.00 0.00 53 1009.9
20260509224058 71 225 0.0 0.0 0.00 0.00 0.00 52 1010.0
20260509223035 72 225 0.0 0.0 0.00 0.00 0.00 51 1010.0
20260509222119 74 225 0.0 1.7 0.00 0.00 0.00 46 1009.9
20260509221035 75 225 0.0 0.0 0.00 0.00 0.00 42 1010.1
20260509220059 75 253 0.9 2.6 0.00 0.00 0.00 42 1009.9
20260509215055 74 180 0.0 0.9 0.00 0.00 0.00 42 1010.1
20260509214058 74 178 0.9 2.6 0.00 0.00 0.00 40 1010.0
20260509213034 76 221 0.9 1.7 0.00 0.00 0.00 36 1010.0
20260509212058 78 239 0.9 2.6 0.00 0.00 0.00 39 1009.8
20260509211034 76 322 0.9 1.7 0.00 0.00 0.00 40 1009.7
20260509210058 75 248 0.0 1.7 0.00 0.00 0.00 42 1009.8
20260509205034 76 270 0.0 1.7 0.00 0.00 0.00 40 1009.7
20260509204058 79 224 0.9 2.6 0.00 0.00 0.00 35 1009.7
20260509203035 80 241 0.9 3.5 0.00 0.00 0.00 36 1009.9
20260509202058 77 254 0.9 2.6 0.00 0.00 0.00 40 1009.8
20260509201032 77 177 0.9 4.3 0.00 0.00 0.00 38 1009.7
20260509200058 77 248 0.0 3.5 0.00 0.00 0.00 41 1009.9
20260509195034 76 224 1.7 3.5 0.00 0.00 0.00 43 1010.0
20260509194059 74 242 1.7 4.3 0.00 0.00 0.00 46 1010.3
20260509193034 72 243 0.9 1.7 0.00 0.00 0.00 49 1010.5
20260509192059 73 199 1.7 4.3 0.00 0.00 0.00 48 1010.7
20260509191035 74 225 0.9 2.6 0.00 0.00 0.00 46 1010.8
20260509190058 74 268 0.9 3.5 0.00 0.00 0.00 47 1010.8
20260509185034 0 0.0 0.0 0.00 0.00 0.00 1011.1
20260509184118 72 234 1.7 4.3 0.00 0.00 0.00 48 1011.2
20260509183036 71 154 0.9 1.7 0.00 0.00 0.00 50 1011.1
20260509182059 70 45 0.0 1.7 0.00 0.00 0.00 52 1011.1
20260509181034 69 315 0.0 1.7 0.00 0.00 0.00 52 1011.3
20260509180058 69 216 0.9 3.5 0.00 0.00 0.00 51 1011.7
20260509175035 69 125 0.9 2.6 0.00 0.00 0.00 51 1011.9
20260509174119 70 192 0.9 3.5 0.00 0.00 0.00 50 1012.1
20260509173034 71 216 1.7 4.3 0.00 0.00 0.00 47 1012.2
20260509172058 71 128 0.9 4.3 0.00 0.00 0.00 49 1012.2
20260509171035 71 236 0.9 3.5 0.00 0.00 0.00 49 1012.1
20260509170056 71 173 0.9 3.5 0.00 0.00 0.00 49 1012.2
20260509165035 71 210 0.9 3.5 0.00 0.00 0.00 49 1012.2
20260509164058 69 113 0.0 1.7 0.00 0.00 0.00 51 1012.3
20260509163034 69 225 0.9 4.3 0.00 0.00 0.00 49 1012.3
20260509162140 70 193 0.9 4.3 0.00 0.00 0.00 49 1012.3
20260509161034 69 302 0.9 3.5 0.00 0.00 0.00 49 1012.3
20260509160100 69 113 0.9 1.7 0.00 0.00 0.00 50 1012.3
20260509155034 69 245 0.9 4.3 0.00 0.00 0.00 50 1012.3
20260509154119 67 214 0.9 4.3 0.00 0.00 0.00 52 1012.4
20260509153035 66 30 0.9 1.7 0.00 0.00 0.00 52 1012.4
20260509152058 66 253 0.9 2.6 0.00 0.00 0.00 52 1012.6
20260509151034 66 145 0.9 2.6 0.00 0.00 0.00 53 1012.5
20260509150058 66 174 0.9 3.5 0.00 0.00 0.00 52 1012.6
20260509145034 65 197 0.9 3.5 0.00 0.00 0.00 53 1012.7
20260509144056 63 66 0.9 3.5 0.00 0.00 0.00 51 1012.8
20260509143034 64 191 0.9 3.5 0.00 0.00 0.00 52 1012.9
20260509142058 62 104 0.9 1.7 0.00 0.00 0.00 53 1013.1
20260509141053 62 198 1.7 5.2 0.00 0.00 0.00 53 1013.2
20260509140058 61 209 0.9 4.3 0.00 0.00 0.00 55 1013.2
20260509135032 60 293 0.0 1.7 0.00 0.00 0.00 59 1013.1
20260509134059 58 225 0.0 2.6 0.00 0.00 0.00 61 1013.1
20260509133034 58 90 0.0 0.9 0.00 0.00 0.00 63 1013.1
20260509132058 57 0 0.0 0.0 0.00 0.00 0.00 63 1013.2
20260509131034 57 0 0.0 0.0 0.00 0.00 0.00 63 1013.4
20260509130059 56 0 0.0 0.0 0.00 0.00 0.00 63 1013.2
20260509125033 56 326 0.9 1.7 0.00 0.00 0.00 63 1013.1
20260509124058 56 180 0.0 4.3 0.00 0.00 0.00 62 1013.0
20260509123034 56 210 0.9 4.3 0.00 0.00 0.00 62 1013.1
20260509122057 56 0 0.0 1.7 0.00 0.00 0.00 62 1013.0
20260509121054 56 180 0.0 0.9 0.00 0.00 0.00 62 1013.1
20260509120058 56 0 0.0 0.9 0.00 0.00 0.00 62 1013.0
20260509115035 56 45 0.0 0.9 0.00 0.00 0.00 61 1013.0
20260509114058 56 338 0.0 1.7 0.00 0.00 0.00 59 1013.0
20260509113034 56 0 0.0 0.9 0.00 0.00 0.00 57 1012.9
20260509112059 57 360 0.0 1.7 0.00 0.00 0.00 54 1012.7
20260509111034 58 156 0.9 3.5 0.00 0.00 0.00 53 1012.4
20260509110118 60 135 0.0 1.7 0.00 0.00 0.00 48 1012.4
20260509105034 60 79 0.9 1.7 0.00 0.00 0.00 47 1012.2
20260509104057 59 174 0.9 4.3 0.00 0.00 0.00 47 1012.2
20260509103035 59 319 1.7 9.6 0.00 0.00 0.00 50 1012.3
20260509102058 58 72 0.9 3.5 0.00 0.00 0.00 51 1012.3
20260509101034 57 161 0.9 5.2 0.00 0.00 0.00 54 1012.4
20260509100059 56 85 0.9 2.6 0.00 0.00 0.00 54 1012.4
20260509095035 56 140 0.9 3.5 0.00 0.00 0.00 54 1012.4
20260509094139 56 198 0.9 1.7 0.00 0.00 0.00 54 1012.4
20260509093035 56 187 0.9 3.5 0.00 0.00 0.00 55 1012.5
20260509092058 56 210 0.9 1.7 0.00 0.00 0.00 55 1012.7
20260509091033 56 217 0.9 2.6 0.00 0.00 0.00 54 1012.8
20260509090058 56 217 0.9 4.3 0.00 0.00 0.00 54 1012.8
20260509085034 56 190 1.7 3.5 0.00 0.00 0.00 53 1012.8
20260509084119 56 135 0.9 2.6 0.00 0.00 0.00 54 1012.9
20260509083034 56 205 0.9 2.6 0.00 0.00 0.00 54 1012.9
20260509082117 56 225 0.9 4.3 0.00 0.00 0.00 54 1013.1
20260509081054 56 203 0.9 2.6 0.00 0.00 0.00 53 1013.0
20260509080057 57 212 1.7 4.3 0.00 0.00 0.00 52 1013.1
20260509075032 58 193 0.9 2.6 0.00 0.00 0.00 51 1013.2
20260509074058 58 188 1.7 7.0 0.00 0.00 0.00 50 1013.1
20260509073034 58 235 1.7 7.0 0.00 0.00 0.00 49 1013.0
20260509072058 58 172 0.9 1.7 0.00 0.00 0.00 51 1013.1
20260509071033 57 180 0.9 2.6 0.00 0.00 0.00 52 1013.1
20260509070058 56 210 0.0 2.6 0.00 0.00 0.00 53 1013.1
20260509065035 56 225 0.0 1.7 0.00 0.00 0.00 54 1013.1
20260509064117 56 225 0.0 1.7 0.00 0.00 0.00 54 1013.2
20260509063034 56 90 0.0 1.7 0.00 0.00 0.00 53 1013.2
20260509062058 57 248 0.0 1.7 0.00 0.00 0.00 52 1013.4
20260509061034 58 135 0.0 1.7 0.00 0.00 0.00 51 1013.6
20260509055034 59 180 0.9 2.6 0.00 0.00 0.00 44 1013.6
20260509054058 59 238 0.9 3.5 0.00 0.00 0.00 44 1013.5
20260509053033 59 167 0.9 1.7 0.00 0.00 0.00 45 1013.6
20260509052059 59 188 1.7 4.3 0.00 0.00 0.00 46 1013.6
20260509051033 59 193 1.7 4.3 0.00 0.00 0.00 48 1013.8
20260509050058 58 245 0.9 3.5 0.00 0.00 0.00 50 1013.6
20260509045033 58 279 0.9 4.3 0.00 0.00 0.00 51 1013.6
20260509044117 57 310 0.9 2.6 0.00 0.00 0.00 52 1013.6
20260509043054 57 193 0.9 3.5 0.00 0.00 0.00 52 1013.7
20260509042058 56 203 0.9 1.7 0.00 0.00 0.00 54 1013.7
20260509041033 56 207 0.9 2.6 0.00 0.00 0.00 55 1013.8
20260509035034 55 180 0.0 1.7 0.00 0.00 0.00 55 1013.8
20260509034058 56 225 0.0 0.0 0.00 0.00 0.00 54 1013.8
20260509033052 56 45 0.0 0.0 0.00 0.00 0.00 54 1013.9
20260509032058 56 225 0.0 0.0 0.00 0.00 0.00 54 1014.0
20260509031053 56 198 0.0 1.7 0.00 0.00 0.00 53 1014.0
20260509030059 57 225 0.0 1.7 0.00 0.00 0.00 53 1014.1
20260509025033 57 225 0.0 0.9 0.00 0.00 0.00 52 1014.1
20260509024119 58 225 0.0 0.0 0.00 0.00 0.00 52 1014.2
20260509023034 58 225 0.0 1.7 0.00 0.00 0.00 51 1014.1